Погода в Тюкалинске

Погода в Тюкалинске : погода сейчас, прогноз погоды и архив. Всё, что Вы хотите узнать о погоде в Тюкалинске!

Хотите узнать прогноз погоды в Тюкалинске? Тогда Вам сюда: Погода в Тюкалинске

Поиск расширенной информации на нашем сайте:

Другие новости

Новости СМИ2

Главная страница сайта

Новости сайта

02.10.2013

Напоминаем, что на нашем новом сайте вы можете получить высокодетализированные прогнозы погоды по пунктам России, СНГ и мира (включающие важные для авиации метеовеличины, такие как направление и скорость ветра, видимость, явления погоды, количество и форма облачности, нижняя и верхняя граница облачности), а также ознакомиться с разнообразными материалами по авиационной метеорологии и подборкой полезных ссылок на эту тему.

Сайт Метеоцентр.Азия посвящён разработке технологий оптимизации авиаметеорологического обслуживания, включая проектирование и перспективное создание нескольких автоматизированных авиаметеорологических систем:
- система выпуска высокодетальных прогностических карт явлений погоды для нижнего воздушного пространства по России и ближнему зарубежью;
- система верификации прогнозов TAF (выпускаемых синоптиками официальных АМСГ РФ и ближнего зарубежья) и AUTOTAF (выпускаемых сайтом Метеоцентр.Азия) - выявление ошибок, онлайн-сопоставление с фактической погодой METAR, автоматическое внесение коррективов в прогнозы при резком отклонении фактической погоды от прогноза, подсчёт оправдываемости прогнозов по элементам и в целом;
- система обработки, анализа и отображения авиаметеорологической информации для применения провайдерами метеорологической информации.

Рекомендуем: Черный щебень цена.

Погода в Тюкалинске - сегодня

Время (UTC), дата Ветер
(°,м/с) 
Видим.   Явления Облачность Т
(°С)
Тd
(°С)
f(%) Тe
(°С)
Pmin
(гПа)
dP
(гПа)
Po
(мм)
O2
(г/м3)
Тmin Tmax R s Состояние
почвы
09 23.05.17 050 (СВ) 20000 м    10/4 600 м кучево-дожд., средняя, верхняя 
[Cb cap|Ac lent|Ci fib]
+22.6 +12.8 54 +28  989.6  -4  732  270           
12 23.05.17 050 (СВ) 20000 м  {гроза, ливн. осадки}  6/6 600 м кучево-дожд. 
[Cb cap]
+22.3 +13.6 58 +29  986.2  -3.4  730  269           
15 23.05.17 330 (СЗ) 6{14}  20000 м    10/10 600 м кучево-дожд. 
[Cb cap]
+15.1 +11 76 +17  987.6  1.1  731  277    +23.8  0.5     
18 23.05.17 260 (З) 6{11}  4000 м  слаб. ливневой дождь  10/10 600 м кучево-дожд. 
[Cb cap]
+10.1 +8.7 91 +9  994  6.1  735  284           
00 24.05.17 270 (З) 6{10}  20000 м  {ливн. осадки}  10/10 600 м кучево-дожд. 
[Cb cap]
+5.6 +2.8 82 +3  1002.1  3.1  741  292           
03 24.05.17 250 (З) 6-10{10}  20000 м    10/10 300 м 
[Sc]
+6 +2.9 80 +4  1004.2  743  292  +5.3       
06 24.05.17 270 (З) 4{10}  20000 м    10/10 600 м 
[Sc]
+7.3 +2.6 72 +6  1005.8  1.6  744  291           
09 24.05.17 270 (З) 20000 м  {ливн. осадки}  10/8 600 м кучево-дожд., средняя 
[Cb cap|Ac lent]
+9.8 +2.7 61 +9  1006.3  0.6  744  289           
12 24.05.17 280 (З) 5{10}  20000 м  {ливн. осадки}  8/8 600 м кучево-дожд. 
[Cb cap]
+10.4 +2.3 57 +9  1007.3  1.1  745  289           
15 24.05.17 260 (З) 4{11}  20000 м  {ливн. осадки}  6/6 600 м кучево-дожд. 
[Cb cap]
+8.7 +1.5 61 +8  1008.6  1.2  746  291    +11.1  0.6     
18 24.05.17 250 (З) 10 км  {ливн. осадки}  8/0 средняя 
[Ac trans]
+6.2 +2.5 77 +5  1010.7  1.9  747  294           
21 24.05.17 230 (ЮЗ) 10 км    6/0 средняя 
[Ac trans]
+4.9 +2.8 86 +4  1011.1  0.3  748  295           
00 25.05.17 210 (ЮЗ) 20000 м    4/4 1000 м 
[Cu hum]
+5.9 +3 82 +4  1010.4  -0.6  747  294           
03 25.05.17 230 (ЮЗ) 6{11}  20000 м    8/0 средняя 
[Ac trans]
+11.7 +2.9 55 +10  1009.5  -0.6  747  288  +4.5         
06 25.05.17 230 (ЮЗ) 8-13{15}  20000 м  {ливн. осадки}  9/9 600 м кучево-дожд. 
[Cb cap]
+12.9 +3.3 52 +11  1009.2  -0.3  746  287           
12 25.05.17 290 (З) 6-12{16}  20000 м    8/8 1000 м 
[Cu med, cong]
+13.7 -4.1 29 +13  1013.1  2.8  749  288           
15 25.05.17 320 (СЗ) 4{13}  20000 м    1/0 верхняя 
[Ci sp]
+9.9 -5.5 33 +9  1015.8  2.5  751  293    +15.4  0.0     
18 25.05.17 250 (З) 10 км    ясно 
+4.6 -1.1 66 +5  1018.3  2.3  753  299           
21 25.05.17 240 (ЮЗ) 10 км    ясно 
+1.8 -0.3 86 +1  1020.2  1.7  754  302           
00 26.05.17 260 (З) 20000 м    ясно 
+2.8 -0.2 81 +4  1022.8  2.6  756  302           
03 26.05.17 290 (З) 20000 м    ясно 
+10 -2.9 40 +10  1024.7  2.2  758  295  +1.5        сухая 
06 26.05.17 320 (СЗ) 20000 м    ясно 
+13.1 -6 26 +13  1024.9  0.3  758  292           
09 26.05.17 240 (ЮЗ) 20000 м    1/0 верхняя 
[Ci fib]
+15.4 -3.7 27 +16  1024.3  -0.5  758  289           
12 26.05.17 230 (ЮЗ) 20000 м    1/0 верхняя 
[Ci fib]
+16.8 -2.7 26 +18  1023  -1.2  757  288           
18 26.05.17 150 (ЮВ) 10 км    ясно 
+10.7 +0.9 51 +11  1021.2  -0.6  755  293           
Время (UTC), дата Ветер
(°,м/с) 
Видим.   Явления Облачность Т
(°С)
Тd
(°С)
f(%) Тe
(°С)
Pmin
(гПа)
dP
(гПа)
Po
(мм)
O2
(г/м3)
Тmin Tmax R s Состояние
почвы

Для получения пояснительной информации подведите курсор к названию столбца.

ПОГОДА в Тюкалинске - архив

Всё, что Вы хотите узнать о погоде в Тюкалинске - удобно и подробно!

Выберите нужную дату (начиная с 1 января 2015* года) и нажмите кнопку "Найти".
Будут отображены архивные сводки погоды по пункту Тюкалинск, начиная с указанной даты.


Отображать данные в формате CSV (для использования в таблицах Excel)


Внимание! Наш архив погоды предназначен исключительно для личного некоммерческого использования в познавательных целях. Если Вам необходимы официальные справки о состоянии погоды (для производственных, юридических, коммерческих и т.п. целей), обращайтесь в органы Росгидромета.

*Примечание: данная дата относится к архиву по метеостанциям СССР (Россия, СНГ, Балтия).
Архив по метеостанциям Зарубежной Европы и Азии (кроме Китая) хранится 10 дней, по другим регионам земного шара (Китай, Африка, Америка, Австралия, Океания) - 1 день.

Тюкалинск - район местоположения метеостанции


Название, широта, долгота, высота метеостанции:
Тюкалинск 55.9°ш. 72.2°д. 118 м над ур. моря [Российская Федерация]

Дополнительная информация

В oтличие oт бoльшинства пoгoдных сайтoв мы публикуем пoдрoбную метеoинфoрмацию в детальнoм прoфессиoнальнoм фoрмате.

Характеристики температуры и влажнoсти вoздуха измеряются на высoте 2 м в тени вдали oт зданий и деревьев.
Скoрoсть ветра измеряется на высoте 10 м (на урoвне рoста челoвека скoрoсть ветра ниже в 1.5-2 раза). Если метеoстанция нахoдится в гoрoде или в лесу, тo скoрoсть ветра занижена на 2-4 м/с пo сравнению с oткрытым местoм. Скoрoсть ветра над акватoриями крупных рек и oзёр, а также на вершинах хoлмoв на 2-5 м/с выше, чем в oбычных услoвиях.
Атмoсфернoе давление в разных тoчках местнoсти мoжет значительнo oтличаться oт давления на метеoстанции, в зависимoсти oт услoвий рельефа (при пoдъёме на 10 м давление пoнижается примернo на 1 мм рт.ст.).